Location: Newark
(31.5350°N, 35.0986°E)
Time: 17:41:49
(UTC+00:00)

Courier 1B - Pass Details

Date: 25 September 2019
Orbit: 962 x 1209 km, 28.3° (Epoch: 23 October)

Event Time Altitude Azimuth Distance (km) Brightness Sun altitude
Exits shadow 00:23:35 20° 119° (ESE) 2,064 9.4 -39.0°
Drops below altitude 10° 00:26:14 10° 100° (E) 2,744 10.3 -38.5°
Sets 00:29:21 0° 88° (E) 3,728 11.3 -37.9°
